Torna al catalogo

SL-16 DEB

AttivoSSO
NORAD 27007·DEBRIS·🇷🇺 Russia

Lanciato Dec 10, 2001 da Baikonur Cosmodrome

Loading…

Prossimi Passaggi (prossime 24 ore)

TLE

AggiornatoSource: Space-Track

Epoca: Sep 14, 2026, 09:07 UTC

1 27007U 01056G   26257.38036190  .00000740  00000-0  75896-3 0  9999
2 27007  99.5116  52.5118 0011866  71.1276 289.1161 13.79777342240922

Traccia SL-16 DEB in tempo reale con AllMySat

Download on the App Store